Location: *
(46.0770°N, 1.6444°E)
Time: 19:15:44
(UTC+00:00)

Cosmos 2219 Rocket - Pass Details

Date: 16 September 2019
Orbit: 829 x 845 km, 71.0° (Epoch: 20 October)

Event Time Altitude Azimuth Distance (km) Brightness Sun altitude
Rises 20:51:17 0° 319° (NW) 3,380 6.5 -27.7°
Reaches altitude 10° 20:54:29 10° 301° (WNW) 2,443 5.5 -28.2°
Maximum altitude 20:58:03 18° 261° (W) 1,956 4.5 -28.6°
Drops below altitude 10° 21:01:38 10° 221° (SW) 2,436 4.6 -29.1°
Enters shadow 21:01:49 - 219° (SW) 2,484 4.6 -29.1°
